Location: Saint-Br�vin-les-Pins
(47.2500°N, 2.1670°W)
Time: 01:29:21
(UTC+01:00)

N. Korean satellite - Visible Passes

Search period start: 22 February 2019 00:00
Search period end: 04 March 2019 00:00
Orbit: 456 x 510 km, 97.2° (Epoch: 21 February)

Date Brightness Start Highest point End Pass type
(mag) Time Alt. Az. Time Alt. Az. Time Alt. Az.
22 Feb 10.1 06:21:49 10° ENE 06:23:28 13° E 06:25:07 10° ESE visible
23 Feb 10.3 19:43:01 10° WSW 19:44:38 13° W 19:46:16 10° WNW visible
24 Feb 8.0 07:04:23 10° NNE 07:07:41 41° E 07:10:57 10° S visible
24 Feb 9.6 19:16:45 10° SSW 19:19:42 23° W 19:22:38 10° NW visible
25 Feb 9.4 06:40:06 10° NE 06:42:48 21° E 06:45:28 10° SE visible
26 Feb 10.2 06:16:46 10° ENE 06:17:50 11° E 06:18:53 10° ESE visible
27 Feb 10.2 19:37:02 10° SW 19:39:00 14° W 19:40:59 10° WNW visible
28 Feb 8.4 06:58:50 10° NNE 07:02:03 35° E 07:05:13 10° SSE visible
01 Mar 9.7 06:34:39 10° NE 06:37:08 18° E 06:39:36 10° SE visible
03 Mar 10.1 19:31:05 10° SW 19:33:20 16° W 19:35:35 10° NW visible
